Year,Month,Day,Hour,Minute,Value (Times are PST for temperature in C)
2011,08,09,00,00,17.20
2011,08,09,00,01,17.20
2011,08,09,00,02,17.20
2011,08,09,00,03,17.20
2011,08,09,00,04,17.20
2011,08,09,00,05,17.10
2011,08,09,00,06,17.10
2011,08,09,00,07,17.10
2011,08,09,00,08,17.10
2011,08,09,00,09,17.10
2011,08,09,00,10,17.10
2011,08,09,00,11,17.10
2011,08,09,00,12,17.00
2011,08,09,00,13,17.00
2011,08,09,00,14,17.00
2011,08,09,00,15,16.90
2011,08,09,00,16,16.90
2011,08,09,00,17,16.90
2011,08,09,00,18,16.90
2011,08,09,00,19,16.90
2011,08,09,00,20,16.90
2011,08,09,00,21,16.80
2011,08,09,00,22,16.80
2011,08,09,00,23,16.80
2011,08,09,00,24,16.80
2011,08,09,00,25,16.80
2011,08,09,00,26,16.80
2011,08,09,00,27,16.70
2011,08,09,00,28,16.70
2011,08,09,00,29,16.70
2011,08,09,00,30,16.70
2011,08,09,00,31,16.60
2011,08,09,00,32,16.60
2011,08,09,00,33,16.60
2011,08,09,00,34,16.60
2011,08,09,00,35,16.60
2011,08,09,00,36,16.60
2011,08,09,00,37,16.60
2011,08,09,00,38,16.50
2011,08,09,00,39,16.50
2011,08,09,00,40,16.50
2011,08,09,00,41,16.50
2011,08,09,00,42,16.50
2011,08,09,00,43,16.40
2011,08,09,00,44,16.40
2011,08,09,00,45,16.40
2011,08,09,00,46,16.40
2011,08,09,00,47,16.40
2011,08,09,00,48,16.40
2011,08,09,00,49,16.40
2011,08,09,00,50,16.40
2011,08,09,00,51,16.40
2011,08,09,00,52,16.40
2011,08,09,00,53,16.40
2011,08,09,00,54,16.40
2011,08,09,00,55,16.40
2011,08,09,00,56,16.40
2011,08,09,00,57,16.30
2011,08,09,00,58,16.30
2011,08,09,00,59,16.30
2011,08,09,01,00,16.30
2011,08,09,01,01,16.30
2011,08,09,01,02,16.30
2011,08,09,01,03,16.30
2011,08,09,01,04,16.30
2011,08,09,01,05,16.30
2011,08,09,01,06,16.30
2011,08,09,01,07,16.20
2011,08,09,01,08,16.20
2011,08,09,01,09,16.20
2011,08,09,01,10,16.20
2011,08,09,01,11,16.20
2011,08,09,01,12,16.20
2011,08,09,01,13,16.20
2011,08,09,01,14,16.10
2011,08,09,01,15,16.10
2011,08,09,01,16,16.10
2011,08,09,01,17,16.10
2011,08,09,01,18,16.10
2011,08,09,01,19,16.10
2011,08,09,01,20,16.10
2011,08,09,01,21,16.00
2011,08,09,01,22,16.00
2011,08,09,01,23,15.90
2011,08,09,01,24,15.90
2011,08,09,01,25,15.90
2011,08,09,01,26,15.90
2011,08,09,01,27,15.90
2011,08,09,01,28,15.90
2011,08,09,01,29,15.90
2011,08,09,01,30,15.90
2011,08,09,01,31,15.90
2011,08,09,01,32,15.80
2011,08,09,01,33,15.80
2011,08,09,01,34,15.80
2011,08,09,01,35,15.80
2011,08,09,01,36,15.80
2011,08,09,01,37,15.80
2011,08,09,01,38,15.80
2011,08,09,01,39,15.80
2011,08,09,01,40,15.80
2011,08,09,01,41,15.80
2011,08,09,01,42,15.80
2011,08,09,01,43,15.80
2011,08,09,01,44,15.80
2011,08,09,01,45,15.80
2011,08,09,01,46,15.80
2011,08,09,01,47,15.80
2011,08,09,01,48,15.80
2011,08,09,01,49,15.80
2011,08,09,01,50,15.80
2011,08,09,01,51,15.80
2011,08,09,01,52,15.80
2011,08,09,01,53,15.80
2011,08,09,01,54,15.80
2011,08,09,01,55,15.80
2011,08,09,01,56,15.80
2011,08,09,01,57,15.80
2011,08,09,01,58,15.80
2011,08,09,01,59,15.80
2011,08,09,02,00,15.80
2011,08,09,02,01,15.80
2011,08,09,02,02,15.80
2011,08,09,02,03,15.80
2011,08,09,02,04,15.80
2011,08,09,02,05,15.80
2011,08,09,02,06,15.80
2011,08,09,02,07,15.80
2011,08,09,02,08,15.80
2011,08,09,02,09,15.80
2011,08,09,02,10,15.80
2011,08,09,02,11,15.80
2011,08,09,02,12,15.80
2011,08,09,02,13,15.80
2011,08,09,02,14,15.80
2011,08,09,02,15,15.80
2011,08,09,02,16,15.80
2011,08,09,02,17,15.80
2011,08,09,02,18,15.80
2011,08,09,02,19,15.80
2011,08,09,02,20,15.80
2011,08,09,02,21,15.70
2011,08,09,02,22,15.70
2011,08,09,02,23,15.70
2011,08,09,02,24,15.70
2011,08,09,02,25,15.70
2011,08,09,02,26,15.70
2011,08,09,02,27,15.70
2011,08,09,02,28,15.70
2011,08,09,02,29,15.70
2011,08,09,02,30,15.70
2011,08,09,02,31,15.70
2011,08,09,02,32,15.70
2011,08,09,02,33,15.70
2011,08,09,02,34,15.70
2011,08,09,02,35,15.70
2011,08,09,02,36,15.70
2011,08,09,02,37,15.70
2011,08,09,02,38,15.70
2011,08,09,02,39,15.70
2011,08,09,02,40,15.70
2011,08,09,02,41,15.70
2011,08,09,02,42,15.70
2011,08,09,02,43,15.70
2011,08,09,02,44,15.70
2011,08,09,02,45,15.70
2011,08,09,02,46,15.70
2011,08,09,02,47,15.70
2011,08,09,02,48,15.70
2011,08,09,02,49,15.80
2011,08,09,02,50,15.70
2011,08,09,02,51,15.80
2011,08,09,02,52,15.80
2011,08,09,02,53,15.80
2011,08,09,02,54,15.80
2011,08,09,02,55,15.80
2011,08,09,02,56,15.80
2011,08,09,02,57,15.70
2011,08,09,02,58,15.70
2011,08,09,02,59,15.70
2011,08,09,03,00,15.70
2011,08,09,03,01,15.70
2011,08,09,03,02,15.70
2011,08,09,03,03,15.70
2011,08,09,03,04,15.70
2011,08,09,03,05,15.70
2011,08,09,03,06,15.70
2011,08,09,03,07,15.70
2011,08,09,03,08,15.70
2011,08,09,03,09,15.70
2011,08,09,03,10,15.70
2011,08,09,03,11,15.70
2011,08,09,03,12,15.70
2011,08,09,03,13,15.70
2011,08,09,03,14,15.70
2011,08,09,03,15,15.70
2011,08,09,03,16,15.70
2011,08,09,03,17,15.70
2011,08,09,03,18,15.70
2011,08,09,03,19,15.70
2011,08,09,03,20,15.70
2011,08,09,03,21,15.70
2011,08,09,03,22,15.70
2011,08,09,03,23,15.80
2011,08,09,03,24,15.80
2011,08,09,03,25,15.80
2011,08,09,03,26,15.80
2011,08,09,03,27,15.80
2011,08,09,03,28,15.80
2011,08,09,03,29,15.80
2011,08,09,03,30,15.80
2011,08,09,03,31,15.70
2011,08,09,03,32,15.70
2011,08,09,03,33,15.70
2011,08,09,03,34,15.70
2011,08,09,03,35,15.70
2011,08,09,03,36,15.70
2011,08,09,03,37,15.70
2011,08,09,03,38,15.70
2011,08,09,03,39,15.70
2011,08,09,03,40,15.70
2011,08,09,03,41,15.70
2011,08,09,03,42,15.70
2011,08,09,03,43,15.70
2011,08,09,03,44,15.70
2011,08,09,03,45,15.70
2011,08,09,03,46,15.70
2011,08,09,03,47,15.70
2011,08,09,03,48,15.70
2011,08,09,03,49,15.70
2011,08,09,03,50,15.70
2011,08,09,03,51,15.70
2011,08,09,03,52,15.70
2011,08,09,03,53,15.70
2011,08,09,03,54,15.70
2011,08,09,03,55,15.70
2011,08,09,03,56,15.70
2011,08,09,03,57,15.70
2011,08,09,03,58,15.70
2011,08,09,03,59,15.70
2011,08,09,04,00,15.70
2011,08,09,04,01,15.70
2011,08,09,04,02,15.70
2011,08,09,04,03,15.70
2011,08,09,04,04,15.70
2011,08,09,04,05,15.70
2011,08,09,04,06,15.70
2011,08,09,04,07,15.70
2011,08,09,04,08,15.70
2011,08,09,04,09,15.70
2011,08,09,04,10,15.70
2011,08,09,04,11,15.80
2011,08,09,04,12,15.70
2011,08,09,04,13,15.80
2011,08,09,04,14,15.80
2011,08,09,04,15,15.80
2011,08,09,04,16,15.80
2011,08,09,04,17,15.80
2011,08,09,04,18,15.80
2011,08,09,04,19,15.80
2011,08,09,04,20,15.80
2011,08,09,04,21,15.80
2011,08,09,04,22,15.90
2011,08,09,04,23,15.90
2011,08,09,04,24,15.90
2011,08,09,04,25,15.90
2011,08,09,04,26,15.90
2011,08,09,04,27,15.90
2011,08,09,04,28,15.90
2011,08,09,04,29,15.90
2011,08,09,04,30,15.90
2011,08,09,04,31,16.00
2011,08,09,04,32,16.00
2011,08,09,04,33,16.00
2011,08,09,04,34,16.00
2011,08,09,04,35,16.00
2011,08,09,04,36,16.00
2011,08,09,04,37,16.00
2011,08,09,04,38,16.00
2011,08,09,04,39,16.00
2011,08,09,04,40,16.00
2011,08,09,04,41,16.00
2011,08,09,04,42,16.00
2011,08,09,04,43,16.00
2011,08,09,04,44,16.00
2011,08,09,04,45,16.00
2011,08,09,04,46,16.00
2011,08,09,04,47,16.00
2011,08,09,04,48,16.00
2011,08,09,04,49,16.00
2011,08,09,04,50,16.00
2011,08,09,04,51,16.00
2011,08,09,04,52,16.00
2011,08,09,04,53,16.00
2011,08,09,04,54,16.00
2011,08,09,04,55,16.00
2011,08,09,04,56,16.00
2011,08,09,04,57,16.00
2011,08,09,04,58,16.00
2011,08,09,04,59,16.00
2011,08,09,05,00,16.00
2011,08,09,05,01,16.00
2011,08,09,05,02,16.00
2011,08,09,05,03,16.00
2011,08,09,05,04,15.90
2011,08,09,05,05,15.90
2011,08,09,05,06,15.90
2011,08,09,05,07,15.90
2011,08,09,05,08,15.90
2011,08,09,05,09,15.90
2011,08,09,05,10,15.90
2011,08,09,05,11,15.90
2011,08,09,05,12,15.90
2011,08,09,05,13,15.90
2011,08,09,05,14,15.90
2011,08,09,05,15,15.90
2011,08,09,05,16,15.80
2011,08,09,05,17,15.80
2011,08,09,05,18,15.80
2011,08,09,05,19,15.80
2011,08,09,05,20,15.80
2011,08,09,05,21,15.80
2011,08,09,05,22,15.80
2011,08,09,05,23,15.80
2011,08,09,05,24,15.80
2011,08,09,05,25,15.80
2011,08,09,05,26,15.80
2011,08,09,05,27,15.80
2011,08,09,05,28,15.80
2011,08,09,05,29,15.80
2011,08,09,05,30,15.80
2011,08,09,05,31,15.80
2011,08,09,05,32,15.80
2011,08,09,05,33,15.80
2011,08,09,05,34,15.80
2011,08,09,05,35,15.80
2011,08,09,05,36,15.80
2011,08,09,05,37,15.80
2011,08,09,05,38,15.80
2011,08,09,05,39,15.70
2011,08,09,05,40,15.70
2011,08,09,05,41,15.70
2011,08,09,05,42,15.70
2011,08,09,05,43,15.70
2011,08,09,05,44,15.70
2011,08,09,05,45,15.70
2011,08,09,05,46,15.60
2011,08,09,05,47,15.60
2011,08,09,05,48,15.60
2011,08,09,05,49,15.60
2011,08,09,05,50,15.60
2011,08,09,05,51,15.60
2011,08,09,05,52,15.60
2011,08,09,05,53,15.60
2011,08,09,05,54,15.60
2011,08,09,05,55,15.60
2011,08,09,05,56,15.50
2011,08,09,05,57,15.50
2011,08,09,05,58,15.50
2011,08,09,05,59,15.40
2011,08,09,06,00,15.40
2011,08,09,06,01,15.40
2011,08,09,06,02,15.40
2011,08,09,06,03,15.40
2011,08,09,06,04,15.40
2011,08,09,06,05,15.30
2011,08,09,06,06,15.30
2011,08,09,06,07,15.30
2011,08,09,06,08,15.30
2011,08,09,06,09,15.30
2011,08,09,06,10,15.30
2011,08,09,06,11,15.30
2011,08,09,06,12,15.30
2011,08,09,06,13,15.30
2011,08,09,06,14,15.30
2011,08,09,06,15,15.30
2011,08,09,06,16,15.30
2011,08,09,06,17,15.30
2011,08,09,06,18,15.30
2011,08,09,06,19,15.30
2011,08,09,06,20,15.30
2011,08,09,06,21,15.30
2011,08,09,06,22,15.30
2011,08,09,06,23,15.30
2011,08,09,06,24,15.30
2011,08,09,06,25,15.30
2011,08,09,06,26,15.30
2011,08,09,06,27,15.30
2011,08,09,06,28,15.30
2011,08,09,06,29,15.30
2011,08,09,06,30,15.30
2011,08,09,06,31,15.40
2011,08,09,06,32,15.40
2011,08,09,06,33,15.40
2011,08,09,06,34,15.40
2011,08,09,06,35,15.40
2011,08,09,06,36,15.40
2011,08,09,06,37,15.50
2011,08,09,06,38,15.50
2011,08,09,06,39,15.50
2011,08,09,06,40,15.50
2011,08,09,06,41,15.60
2011,08,09,06,42,15.60
2011,08,09,06,43,15.60
2011,08,09,06,44,15.60
2011,08,09,06,45,15.70
2011,08,09,06,46,15.70
2011,08,09,06,47,15.70
2011,08,09,06,48,15.70
2011,08,09,06,49,15.70
2011,08,09,06,50,15.80
2011,08,09,06,51,15.80
2011,08,09,06,52,15.80
2011,08,09,06,53,15.80
2011,08,09,06,54,15.80
2011,08,09,06,55,15.90
2011,08,09,06,56,15.90
2011,08,09,06,57,15.90
2011,08,09,06,58,15.90
2011,08,09,06,59,15.90
2011,08,09,07,00,16.00
2011,08,09,07,01,16.00
2011,08,09,07,02,16.00
2011,08,09,07,03,16.00
2011,08,09,07,04,16.10
2011,08,09,07,05,16.10
2011,08,09,07,06,16.10
2011,08,09,07,07,16.10
2011,08,09,07,08,16.20
2011,08,09,07,09,16.20
2011,08,09,07,10,16.20
2011,08,09,07,11,16.20
2011,08,09,07,12,16.20
2011,08,09,07,13,16.30
2011,08,09,07,14,16.30
2011,08,09,07,15,16.30
2011,08,09,07,16,16.30
2011,08,09,07,17,16.30
2011,08,09,07,18,16.30
2011,08,09,07,19,16.30
2011,08,09,07,20,16.40
2011,08,09,07,21,16.40
2011,08,09,07,22,16.40
2011,08,09,07,23,16.40
2011,08,09,07,24,16.40
2011,08,09,07,25,16.40
2011,08,09,07,26,16.50
2011,08,09,07,27,16.50
2011,08,09,07,28,16.50
2011,08,09,07,29,16.50
2011,08,09,07,30,16.60
2011,08,09,07,31,16.60
2011,08,09,07,32,16.60
2011,08,09,07,33,16.60
2011,08,09,07,34,16.60
2011,08,09,07,35,16.60
2011,08,09,07,36,16.70
2011,08,09,07,37,16.70
2011,08,09,07,38,16.70
2011,08,09,07,39,16.70
2011,08,09,07,40,16.70
2011,08,09,07,41,16.70
2011,08,09,07,42,16.70
2011,08,09,07,43,16.80
2011,08,09,07,44,16.80
2011,08,09,07,45,16.80
2011,08,09,07,46,16.80
2011,08,09,07,47,16.80
2011,08,09,07,48,16.80
2011,08,09,07,49,16.80
2011,08,09,07,50,16.80
2011,08,09,07,51,16.80
2011,08,09,07,52,16.80
2011,08,09,07,53,16.80
2011,08,09,07,54,16.80
2011,08,09,07,55,16.80
2011,08,09,07,56,16.90
2011,08,09,07,57,16.90
2011,08,09,07,58,16.90
2011,08,09,07,59,16.90
2011,08,09,08,00,16.90
2011,08,09,08,01,16.90
2011,08,09,08,02,16.90
2011,08,09,08,03,16.90
2011,08,09,08,04,17.00
2011,08,09,08,05,17.00
2011,08,09,08,06,17.00
2011,08,09,08,07,17.00
2011,08,09,08,08,17.10
2011,08,09,08,09,17.10
2011,08,09,08,10,17.10
2011,08,09,08,11,17.10
2011,08,09,08,12,17.10
2011,08,09,08,13,17.10
2011,08,09,08,14,17.10
2011,08,09,08,15,17.10
2011,08,09,08,16,17.10
2011,08,09,08,17,17.10
2011,08,09,08,18,17.10
2011,08,09,08,19,17.10
2011,08,09,08,20,17.20
2011,08,09,08,21,17.20
2011,08,09,08,22,17.20
2011,08,09,08,23,17.20
2011,08,09,08,24,17.20
2011,08,09,08,25,17.20
2011,08,09,08,26,17.20
2011,08,09,08,27,17.20
2011,08,09,08,28,17.20
2011,08,09,08,29,17.20
2011,08,09,08,30,17.20
2011,08,09,08,31,17.20
2011,08,09,08,32,17.20
2011,08,09,08,33,17.30
2011,08,09,08,34,17.30
2011,08,09,08,35,17.30
2011,08,09,08,36,17.30
2011,08,09,08,37,17.30
2011,08,09,08,38,17.30
2011,08,09,08,39,17.30
2011,08,09,08,40,17.30
2011,08,09,08,41,17.30
2011,08,09,08,42,17.30
2011,08,09,08,43,17.30
2011,08,09,08,44,17.40
2011,08,09,08,45,17.40
2011,08,09,08,46,17.40
2011,08,09,08,47,17.40
2011,08,09,08,48,17.40
2011,08,09,08,49,17.40
2011,08,09,08,50,17.40
2011,08,09,08,51,17.40
2011,08,09,08,52,17.40
2011,08,09,08,53,17.40
2011,08,09,08,54,17.40
2011,08,09,08,55,17.40
2011,08,09,08,56,17.40
2011,08,09,08,57,17.50
2011,08,09,08,58,17.50
2011,08,09,08,59,17.50
2011,08,09,09,00,17.50
2011,08,09,09,01,17.50
2011,08,09,09,02,17.50
2011,08,09,09,03,17.60
2011,08,09,09,04,17.60
2011,08,09,09,05,17.60
2011,08,09,09,06,17.60
2011,08,09,09,07,17.60
2011,08,09,09,08,17.60
2011,08,09,09,09,17.60
2011,08,09,09,10,17.60
2011,08,09,09,11,17.60
2011,08,09,09,12,17.60
2011,08,09,09,13,17.50
2011,08,09,09,14,17.50
2011,08,09,09,15,17.50
2011,08,09,09,16,17.50
2011,08,09,09,17,17.50
2011,08,09,09,18,17.50
2011,08,09,09,19,17.50
2011,08,09,09,20,17.50
2011,08,09,09,21,17.60
2011,08,09,09,22,17.60
2011,08,09,09,23,17.60
2011,08,09,09,24,17.60
2011,08,09,09,25,17.60
2011,08,09,09,26,17.60
2011,08,09,09,27,17.60
2011,08,09,09,28,17.60
2011,08,09,09,29,17.60
2011,08,09,09,30,17.60
2011,08,09,09,31,17.70
2011,08,09,09,32,17.70
2011,08,09,09,33,17.70
2011,08,09,09,34,17.70
2011,08,09,09,35,17.80
2011,08,09,09,36,17.80
2011,08,09,09,37,17.80
2011,08,09,09,38,17.80
2011,08,09,09,39,17.80
2011,08,09,09,40,17.90
2011,08,09,09,41,17.90
2011,08,09,09,42,17.90
2011,08,09,09,43,18.00
2011,08,09,09,44,18.00
2011,08,09,09,45,18.10
2011,08,09,09,46,18.10
2011,08,09,09,47,18.10
2011,08,09,09,48,18.10
2011,08,09,09,49,18.20
2011,08,09,09,50,18.20
2011,08,09,09,51,18.20
2011,08,09,09,52,18.30
2011,08,09,09,53,18.30
2011,08,09,09,54,18.30
2011,08,09,09,55,18.30
2011,08,09,09,56,18.30
2011,08,09,09,57,18.30
2011,08,09,09,58,18.30
2011,08,09,09,59,18.40
2011,08,09,10,00,18.40
2011,08,09,10,01,18.40
2011,08,09,10,02,18.40
2011,08,09,10,03,18.40
2011,08,09,10,04,18.30
2011,08,09,10,05,18.30
2011,08,09,10,06,18.30
2011,08,09,10,07,18.30
2011,08,09,10,08,18.30
2011,08,09,10,09,18.20
2011,08,09,10,10,18.20
2011,08,09,10,11,18.20
2011,08,09,10,12,18.20
2011,08,09,10,13,18.10
2011,08,09,10,14,18.10
2011,08,09,10,15,18.10
2011,08,09,10,16,18.10
2011,08,09,10,17,18.00
2011,08,09,10,18,18.00
2011,08,09,10,19,18.00
2011,08,09,10,20,18.00
2011,08,09,10,21,18.10
2011,08,09,10,22,18.10
2011,08,09,10,23,18.00
2011,08,09,10,24,18.00
2011,08,09,10,25,18.00
2011,08,09,10,26,18.00
2011,08,09,10,27,18.10
2011,08,09,10,28,18.10
2011,08,09,10,29,18.10
2011,08,09,10,30,18.10
2011,08,09,10,31,18.10
2011,08,09,10,32,18.10
2011,08,09,10,33,18.10
2011,08,09,10,34,18.10
2011,08,09,10,35,18.10
2011,08,09,10,36,18.10
2011,08,09,10,37,18.20
2011,08,09,10,38,18.20
2011,08,09,10,39,18.20
2011,08,09,10,40,18.20
2011,08,09,10,41,18.20
2011,08,09,10,42,18.20
2011,08,09,10,43,18.30
2011,08,09,10,44,18.30
2011,08,09,10,45,18.30
2011,08,09,10,46,18.30
2011,08,09,10,47,18.30
2011,08,09,10,48,18.30
2011,08,09,10,49,18.40
2011,08,09,10,50,18.40
2011,08,09,10,51,18.40
2011,08,09,10,52,18.40
2011,08,09,10,53,18.40
2011,08,09,10,54,18.50
2011,08,09,10,55,18.60
2011,08,09,10,56,18.60
2011,08,09,10,57,18.70
2011,08,09,10,58,18.70
2011,08,09,10,59,18.80
2011,08,09,11,00,18.80
2011,08,09,11,01,18.80
2011,08,09,11,02,18.80
2011,08,09,11,03,18.90
2011,08,09,11,04,18.90
2011,08,09,11,05,19.00
2011,08,09,11,06,19.10
2011,08,09,11,07,19.20
2011,08,09,11,08,19.30
2011,08,09,11,09,19.30
2011,08,09,11,10,19.40
2011,08,09,11,11,19.50
2011,08,09,11,12,19.50
2011,08,09,11,13,19.60
2011,08,09,11,14,19.60
2011,08,09,11,15,19.60
2011,08,09,11,16,19.70
2011,08,09,11,17,19.70
2011,08,09,11,18,19.70
2011,08,09,11,19,19.60
2011,08,09,11,20,19.30
2011,08,09,11,21,19.20
2011,08,09,11,22,19.10
2011,08,09,11,23,19.10
2011,08,09,11,24,19.10
2011,08,09,11,25,19.10
2011,08,09,11,26,19.10
2011,08,09,11,27,19.20
2011,08,09,11,28,19.20
2011,08,09,11,29,19.20
2011,08,09,11,30,19.20
2011,08,09,11,31,19.30
2011,08,09,11,32,19.30
2011,08,09,11,33,19.40
2011,08,09,11,34,19.40
2011,08,09,11,35,19.50
2011,08,09,11,36,19.60
2011,08,09,11,37,19.70
2011,08,09,11,38,19.70
2011,08,09,11,39,19.70
2011,08,09,11,40,19.80
2011,08,09,11,41,19.80
2011,08,09,11,42,19.80
2011,08,09,11,43,19.90
2011,08,09,11,44,19.90
2011,08,09,11,45,19.90
2011,08,09,11,46,19.90
2011,08,09,11,47,19.90
2011,08,09,11,48,19.90
2011,08,09,11,49,20.00
2011,08,09,11,50,20.00
2011,08,09,11,51,20.00
2011,08,09,11,52,19.90
2011,08,09,11,53,19.90
2011,08,09,11,54,19.90
2011,08,09,11,55,20.00
2011,08,09,11,56,20.00
2011,08,09,11,57,20.00
2011,08,09,11,58,19.90
2011,08,09,11,59,19.90
2011,08,09,12,00,19.90
2011,08,09,12,01,20.00
2011,08,09,12,02,19.90
2011,08,09,12,03,19.90
2011,08,09,12,04,19.90
2011,08,09,12,05,19.90
2011,08,09,12,06,19.90
2011,08,09,12,07,19.90
2011,08,09,12,08,19.90
2011,08,09,12,09,19.80
2011,08,09,12,10,19.80
2011,08,09,12,11,19.80
2011,08,09,12,12,19.70
2011,08,09,12,13,19.70
2011,08,09,12,14,19.70
2011,08,09,12,15,19.70
2011,08,09,12,16,19.70
2011,08,09,12,17,19.70
2011,08,09,12,18,19.60
2011,08,09,12,19,19.60
2011,08,09,12,20,19.60
2011,08,09,12,21,19.60
2011,08,09,12,22,19.60
2011,08,09,12,23,19.50
2011,08,09,12,24,19.50
2011,08,09,12,25,19.50
2011,08,09,12,26,19.50
2011,08,09,12,27,19.40
2011,08,09,12,28,19.40
2011,08,09,12,29,19.40
2011,08,09,12,30,19.40
2011,08,09,12,31,19.40
2011,08,09,12,32,19.50
2011,08,09,12,33,19.40
2011,08,09,12,34,19.50
2011,08,09,12,35,19.50
2011,08,09,12,36,19.50
2011,08,09,12,37,19.60
2011,08,09,12,38,19.60
2011,08,09,12,39,19.60
2011,08,09,12,40,19.70
2011,08,09,12,41,19.70
2011,08,09,12,42,19.70
2011,08,09,12,43,19.80
2011,08,09,12,44,19.80
2011,08,09,12,45,19.80
2011,08,09,12,46,19.80
2011,08,09,12,47,19.80
2011,08,09,12,48,19.80
2011,08,09,12,49,19.90
2011,08,09,12,50,19.90
2011,08,09,12,51,19.90
2011,08,09,12,52,19.90
2011,08,09,12,53,19.90
2011,08,09,12,54,19.90
2011,08,09,12,55,19.90
2011,08,09,12,56,19.90
2011,08,09,12,57,19.80
2011,08,09,12,58,19.80
2011,08,09,12,59,19.80
2011,08,09,13,00,19.80
2011,08,09,13,01,19.80
2011,08,09,13,02,19.80
2011,08,09,13,03,19.80
2011,08,09,13,04,19.80
2011,08,09,13,05,19.80
2011,08,09,13,06,19.80
2011,08,09,13,07,19.80
2011,08,09,13,08,19.70
2011,08,09,13,09,19.70
2011,08,09,13,10,19.70
2011,08,09,13,11,19.70
2011,08,09,13,12,19.70
2011,08,09,13,13,19.70
2011,08,09,13,14,19.70
2011,08,09,13,15,19.70
2011,08,09,13,16,19.70
2011,08,09,13,17,19.70
2011,08,09,13,18,19.80
2011,08,09,13,19,19.90
2011,08,09,13,20,19.90
2011,08,09,13,21,19.90
2011,08,09,13,22,20.00
2011,08,09,13,23,20.10
2011,08,09,13,24,20.10
2011,08,09,13,25,20.10
2011,08,09,13,26,20.10
2011,08,09,13,27,20.10
2011,08,09,13,28,20.10
2011,08,09,13,29,20.00
2011,08,09,13,30,20.00
2011,08,09,13,31,19.90
2011,08,09,13,32,19.80
2011,08,09,13,33,19.80
2011,08,09,13,34,19.80
2011,08,09,13,35,19.80
2011,08,09,13,36,19.90
2011,08,09,13,37,19.90
2011,08,09,13,38,20.00
2011,08,09,13,39,20.10
2011,08,09,13,40,20.10
2011,08,09,13,41,20.20
2011,08,09,13,42,20.30
2011,08,09,13,43,20.30
2011,08,09,13,44,20.40
2011,08,09,13,45,20.60
2011,08,09,13,46,20.70
2011,08,09,13,47,20.70
2011,08,09,13,48,20.70
2011,08,09,13,49,20.70
2011,08,09,13,50,20.80
2011,08,09,13,51,20.80
2011,08,09,13,52,20.90
2011,08,09,13,53,20.90
2011,08,09,13,54,20.90
2011,08,09,13,55,20.90
2011,08,09,13,56,20.90
2011,08,09,13,57,20.90
2011,08,09,13,58,20.90
2011,08,09,13,59,20.80
2011,08,09,14,00,20.80
2011,08,09,14,01,20.70
2011,08,09,14,02,20.70
2011,08,09,14,03,20.60
2011,08,09,14,04,20.60
2011,08,09,14,05,20.50
2011,08,09,14,06,20.50
2011,08,09,14,07,20.50
2011,08,09,14,08,20.50
2011,08,09,14,09,20.50
2011,08,09,14,10,20.40
2011,08,09,14,11,20.40
2011,08,09,14,12,20.30
2011,08,09,14,13,20.20
2011,08,09,14,14,20.10
2011,08,09,14,15,20.00
2011,08,09,14,16,19.90
2011,08,09,14,17,19.80
2011,08,09,14,18,19.80
2011,08,09,14,19,19.80
2011,08,09,14,20,19.80
2011,08,09,14,21,19.80
2011,08,09,14,22,19.90
2011,08,09,14,23,19.90
2011,08,09,14,24,20.00
2011,08,09,14,25,20.10
2011,08,09,14,26,20.10
2011,08,09,14,27,20.10
2011,08,09,14,28,20.10
2011,08,09,14,29,20.10
2011,08,09,14,30,20.20
2011,08,09,14,31,20.30
2011,08,09,14,32,20.30
2011,08,09,14,33,20.40
2011,08,09,14,34,20.50
2011,08,09,14,35,20.60
2011,08,09,14,36,20.60
2011,08,09,14,37,20.60
2011,08,09,14,38,20.60
2011,08,09,14,39,20.50
2011,08,09,14,40,20.40
2011,08,09,14,41,20.20
2011,08,09,14,42,20.10
2011,08,09,14,43,20.00
2011,08,09,14,44,19.90
2011,08,09,14,45,19.80
2011,08,09,14,46,19.70
2011,08,09,14,47,19.60
2011,08,09,14,48,19.50
2011,08,09,14,49,19.40
2011,08,09,14,50,19.30
2011,08,09,14,51,19.30
2011,08,09,14,52,19.20
2011,08,09,14,53,19.20
2011,08,09,14,54,19.20
2011,08,09,14,55,19.10
2011,08,09,14,56,19.10
2011,08,09,14,57,19.10
2011,08,09,14,58,19.10
2011,08,09,14,59,19.00
2011,08,09,15,00,19.00
2011,08,09,15,01,18.90
2011,08,09,15,02,18.90
2011,08,09,15,03,18.90
2011,08,09,15,04,18.90
2011,08,09,15,05,19.00
2011,08,09,15,06,19.00
2011,08,09,15,07,18.90
2011,08,09,15,08,19.00
2011,08,09,15,09,18.90
2011,08,09,15,10,19.00
2011,08,09,15,11,19.00
2011,08,09,15,12,18.90
2011,08,09,15,13,19.00
2011,08,09,15,14,19.00
2011,08,09,15,15,19.00
2011,08,09,15,16,19.10
2011,08,09,15,17,19.10
2011,08,09,15,18,19.20
2011,08,09,15,19,19.20
2011,08,09,15,20,19.20
2011,08,09,15,21,19.20
2011,08,09,15,22,19.20
2011,08,09,15,23,19.20
2011,08,09,15,24,19.10
2011,08,09,15,25,19.10
2011,08,09,15,26,19.10
2011,08,09,15,27,19.10
2011,08,09,15,28,19.10
2011,08,09,15,29,19.10
2011,08,09,15,30,19.10
2011,08,09,15,31,19.10
2011,08,09,15,32,19.10
2011,08,09,15,33,19.20
2011,08,09,15,34,19.20
2011,08,09,15,35,19.20
2011,08,09,15,36,19.30
2011,08,09,15,37,19.30
2011,08,09,15,38,19.40
2011,08,09,15,39,19.40
2011,08,09,15,40,19.40
2011,08,09,15,41,19.40
2011,08,09,15,42,19.50
2011,08,09,15,43,19.50
2011,08,09,15,44,19.50
2011,08,09,15,45,19.50
2011,08,09,15,46,19.50
2011,08,09,15,47,19.50
2011,08,09,15,48,19.50
2011,08,09,15,49,19.50
2011,08,09,15,50,19.50
2011,08,09,15,51,19.50
2011,08,09,15,52,19.50
2011,08,09,15,53,19.50
2011,08,09,15,54,19.60
2011,08,09,15,55,19.60
2011,08,09,15,56,19.50
2011,08,09,15,57,19.50
2011,08,09,15,58,19.50
2011,08,09,15,59,19.60
2011,08,09,16,00,19.60
2011,08,09,16,01,19.70
2011,08,09,16,02,19.70
2011,08,09,16,03,19.80
2011,08,09,16,04,19.90
2011,08,09,16,05,19.90
2011,08,09,16,06,19.90
2011,08,09,16,07,19.90
2011,08,09,16,08,19.90
2011,08,09,16,09,19.90
2011,08,09,16,10,19.90
2011,08,09,16,11,19.90
2011,08,09,16,12,19.90
2011,08,09,16,13,19.90
2011,08,09,16,14,19.90
2011,08,09,16,15,19.90
2011,08,09,16,16,19.90
2011,08,09,16,17,19.90
2011,08,09,16,18,20.00
2011,08,09,16,19,20.10
2011,08,09,16,20,20.10
2011,08,09,16,21,20.20
2011,08,09,16,22,20.30
2011,08,09,16,23,20.40
2011,08,09,16,24,20.50
2011,08,09,16,25,20.60
2011,08,09,16,26,20.60
2011,08,09,16,27,20.70
2011,08,09,16,28,20.80
2011,08,09,16,29,20.80
2011,08,09,16,30,20.90
2011,08,09,16,31,20.90
2011,08,09,16,32,20.90
2011,08,09,16,33,20.90
2011,08,09,16,34,20.90
2011,08,09,16,35,21.00
2011,08,09,16,36,21.00
2011,08,09,16,37,21.00
2011,08,09,16,38,21.00
2011,08,09,16,39,21.00
2011,08,09,16,40,20.90
2011,08,09,16,41,20.90
2011,08,09,16,42,20.80
2011,08,09,16,43,20.70
2011,08,09,16,44,20.70
2011,08,09,16,45,20.70
2011,08,09,16,46,20.60
2011,08,09,16,47,20.60
2011,08,09,16,48,20.50
2011,08,09,16,49,20.50
2011,08,09,16,50,20.50
2011,08,09,16,51,20.60
2011,08,09,16,52,20.60
2011,08,09,16,53,20.70
2011,08,09,16,54,20.70
2011,08,09,16,55,20.70
2011,08,09,16,56,20.80
2011,08,09,16,57,20.80
2011,08,09,16,58,20.80
2011,08,09,16,59,20.80
2011,08,09,17,00,20.90
2011,08,09,17,01,20.90
2011,08,09,17,02,21.00
2011,08,09,17,03,21.10
2011,08,09,17,04,21.10
2011,08,09,17,05,21.20
2011,08,09,17,06,21.20
2011,08,09,17,07,21.30
2011,08,09,17,08,21.40
2011,08,09,17,09,21.40
2011,08,09,17,10,21.40
2011,08,09,17,11,21.40
2011,08,09,17,12,21.50
2011,08,09,17,13,21.50
2011,08,09,17,14,21.50
2011,08,09,17,15,21.60
2011,08,09,17,16,21.60
2011,08,09,17,17,21.50
2011,08,09,17,18,21.50
2011,08,09,17,19,21.50